Weather History for Saginaw Browne, MI

Change the Weather History Date:

Sunday, September 16, 2012

  Actual Average (KMBS) Record (KMBS)
Temperature  
Mean Temperature 62 °F 61 °F  
Max Temperature 77 °F 72 °F 80 °F (2003)
Min Temperature 48 °F 50 °F 37 °F (2007)
Degree Days  
Heating Degree Days 2    
Month to date heating degree days  
Since 1 July heating degree days  
Cooling Degree Days 0    
Month to date cooling degree days  
Year to date cooling degree days  
Growing Degree Days 12 (Base 50)    
Moisture  
Dew Point 49 °F    
Average Humidity 65    
Maximum Humidity 93    
Minimum Humidity 34    
Precipitation  
Precipitation 0.00 in 0.14 in 0.48 in (2010)
Month to date precipitation 2.05  
Year to date precipitation 22.57  
Snow  
Snow 0.00 in - - ()
Month to date snowfall  
Since 1 July snowfall  
Since 1 September snowfall  
Snow Depth -    
Sea Level Pressure  
Sea Level Pressure 30.06 in    
Wind  
Wind Speed 6 mph (SW)    
Max Wind Speed 12 mph    
Max Gust Speed 18 mph    
Visibility 10 miles    
Events      
T = Trace of Precipitation, MM = Missing Value Source: NWS Daily Summary

Daily Weather History Graph

Daily Weather History Graph

Search for Another Location

Airport:

Trip Planner

Search our weather history database for the weather conditions in past years. The results will help you decide how hot, cold, wet, or windy it might be!

Date:

Astronomy

Sep. 16, 2012 Rise Set
Actual Time 7:16 AM EDT 7:42 PM EDT
Civil Twilight 6:47 AM EDT 8:11 PM EDT
Nautical Twilight 6:14 AM EDT 8:45 PM EDT
Astronomical Twilight 5:39 AM EDT 9:19 PM EDT
Moon 7:57 AM EDT (9/16) 7:43 PM EDT (9/16)
Length of Visible Light 13h 23m
Length of Day
12h 26m
New Moon, 0% of the Moon is Illuminated
Sep 16
New Moon
Sep 22
First Quarter
Sep 29
Full
Oct 8
Last Quarter
Oct 15
New

Hourly Weather History & Observations

Time (EDT) Temp. Dew Point Humidity Pressure Visibility Wind Dir Wind Speed Gust Speed Precip Events Conditions
12:11 AM 53.6 °F 48.2 °F 82% 30.14 in 10.0 mi South 3.5 mph - N/A   Clear
12:31 AM 51.8 °F 46.4 °F 82% 30.14 in 10.0 mi South 4.6 mph - N/A   Clear
12:51 AM 51.8 °F 46.4 °F 82% 30.13 in 10.0 mi South 3.5 mph - N/A   Clear
1:11 AM 51.8 °F 48.2 °F 88% 30.13 in 10.0 mi SW 5.8 mph - N/A   Clear
1:31 AM 53.6 °F 48.2 °F 82% 30.13 in 10.0 mi SW 4.6 mph - N/A   Clear
1:51 AM 51.8 °F 48.2 °F 88% 30.12 in 10.0 mi SW 5.8 mph - N/A   Clear
2:12 AM 53.6 °F 46.4 °F 77% 30.12 in 10.0 mi SSW 4.6 mph - N/A   Clear
2:32 AM 53.6 °F 46.4 °F 77% 30.11 in 10.0 mi SW 4.6 mph - N/A   Clear
2:52 AM 53.6 °F 46.4 °F 77% 30.11 in 10.0 mi SSW 4.6 mph - N/A   Clear
3:12 AM 51.8 °F 46.4 °F 82% 30.11 in 10.0 mi Calm Calm - N/A   Clear
3:32 AM 51.8 °F 46.4 °F 82% 30.10 in 10.0 mi South 3.5 mph - N/A   Clear
3:52 AM 50.0 °F 46.4 °F 87% 30.10 in 10.0 mi South 3.5 mph - N/A   Clear
4:12 AM 50.0 °F 46.4 °F 87% 30.10 in 10.0 mi SSW 3.5 mph - N/A   Clear
4:32 AM 50.0 °F 46.4 °F 87% 30.10 in 10.0 mi Calm Calm - N/A   Clear
4:52 AM 50.0 °F 46.4 °F 87% 30.09 in 10.0 mi South 3.5 mph - N/A   Clear
5:12 AM 50.0 °F 46.4 °F 87% 30.10 in 10.0 mi South 4.6 mph - N/A   Clear
5:33 AM 48.2 °F 46.4 °F 93% 30.10 in 10.0 mi SSW 4.6 mph - N/A   Clear
5:53 AM 48.2 °F 46.4 °F 93% 30.09 in 10.0 mi South 3.5 mph - N/A   Clear
6:13 AM 50.0 °F 46.4 °F 87% 30.10 in 10.0 mi SW 4.6 mph - N/A   Clear
6:33 AM 50.0 °F 46.4 °F 87% 30.10 in 10.0 mi SW 4.6 mph - N/A   Clear
6:53 AM 51.8 °F 46.4 °F 82% 30.10 in 10.0 mi SW 6.9 mph - N/A   Clear
7:13 AM 51.8 °F 46.4 °F 82% 30.10 in 10.0 mi SW 8.1 mph - N/A   Clear
7:33 AM 51.8 °F 46.4 °F 82% 30.10 in 10.0 mi SW 8.1 mph - N/A   Clear
8:13 AM 53.6 °F 48.2 °F 82% 30.10 in 10.0 mi SW 6.9 mph - N/A   Clear
8:34 AM 55.4 °F 48.2 °F 77% 30.10 in 10.0 mi SW 5.8 mph - N/A   Clear
8:54 AM 55.4 °F 50.0 °F 82% 30.09 in 10.0 mi SW 9.2 mph - N/A   Clear
9:14 AM 59.0 °F 50.0 °F 72% 30.10 in 10.0 mi SW 6.9 mph - N/A   Clear
9:34 AM 60.8 °F 50.0 °F 68% 30.09 in 10.0 mi SW 10.4 mph - N/A   Clear
9:54 AM 62.6 °F 50.0 °F 63% 30.09 in 10.0 mi WSW 11.5 mph - N/A   Clear
10:14 AM 62.6 °F 51.8 °F 68% 30.09 in 10.0 mi WSW 8.1 mph - N/A   Clear
10:34 AM 66.2 °F 53.6 °F 64% 30.09 in 10.0 mi WSW 8.1 mph - N/A   Clear
10:54 AM 68.0 °F 53.6 °F 60% 30.08 in 10.0 mi WSW 6.9 mph - N/A   Clear
11:09 AM 69.8 °F 55.4 °F 60% 30.08 in 10.0 mi WSW 8.1 mph - N/A   Clear
11:30 AM 69.8 °F 53.6 °F 56% 30.08 in 10.0 mi WSW 8.1 mph - N/A   Clear
11:50 AM 71.6 °F 55.4 °F 57% 30.07 in 10.0 mi West 6.9 mph - N/A   Clear
12:10 PM 73.4 °F 53.6 °F 50% 30.07 in 10.0 mi SW 8.1 mph - N/A   Clear
12:30 PM 73.4 °F 55.4 °F 53% 30.06 in 10.0 mi SW 6.9 mph - N/A   Clear
12:50 PM 75.2 °F 53.6 °F 47% 30.06 in 10.0 mi SW 8.1 mph - N/A   Clear
1:10 PM 77.0 °F 53.6 °F 44% 30.05 in 10.0 mi SSW 8.1 mph - N/A   Clear
1:30 PM 77.0 °F 51.8 °F 41% 30.05 in 10.0 mi SW 9.2 mph - N/A   Clear
1:50 PM 77.0 °F 51.8 °F 41% 30.05 in 10.0 mi SW 8.1 mph 16.1 mph N/A   Clear
2:10 PM 77.0 °F 50.0 °F 39% 30.04 in 10.0 mi SW 11.5 mph 17.3 mph N/A   Clear
2:30 PM 77.0 °F 50.0 °F 39% 30.04 in 10.0 mi WSW 10.4 mph - N/A   Clear
2:51 PM 75.2 °F 50.0 °F 41% 30.03 in 10.0 mi WSW 8.1 mph - N/A   Clear
3:11 PM 75.2 °F 48.2 °F 38% 30.02 in 10.0 mi WSW 9.2 mph 17.3 mph N/A   Clear
3:31 PM 77.0 °F 50.0 °F 39% 30.02 in 10.0 mi SW 8.1 mph - N/A   Clear
3:51 PM 77.0 °F 46.4 °F 34% 30.01 in 10.0 mi WSW 9.2 mph - N/A   Clear
4:11 PM 77.0 °F 46.4 °F 34% 30.01 in 10.0 mi WSW 10.4 mph 18.4 mph N/A   Clear
4:31 PM 75.2 °F 46.4 °F 36% 30.01 in 10.0 mi SW 11.5 mph 16.1 mph N/A   Clear
4:51 PM 77.0 °F 46.4 °F 34% 30.01 in 10.0 mi SW 10.4 mph - N/A   Clear
5:11 PM 77.0 °F 48.2 °F 36% 30.00 in 10.0 mi SW 8.1 mph - N/A   Clear
5:31 PM 75.2 °F 48.2 °F 38% 30.00 in 10.0 mi SW 8.1 mph - N/A   Clear
5:52 PM 73.4 °F 46.4 °F 38% 30.00 in 10.0 mi SW 8.1 mph - N/A   Clear
6:12 PM 73.4 °F 50.0 °F 44% 29.99 in 10.0 mi SW 4.6 mph - N/A   Clear
6:32 PM 73.4 °F 50.0 °F 44% 29.99 in 10.0 mi SW 6.9 mph - N/A   Clear
6:52 PM 71.6 °F 50.0 °F 46% 29.99 in 10.0 mi SW 6.9 mph - N/A   Clear
7:12 PM 69.8 °F 50.0 °F 49% 29.99 in 10.0 mi SW 5.8 mph - N/A   Clear
7:32 PM 68.0 °F 50.0 °F 52% 29.99 in 10.0 mi SW 5.8 mph - N/A   Clear
7:52 PM 64.4 °F 50.0 °F 59% 29.99 in 10.0 mi SW 4.6 mph - N/A   Clear
8:12 PM 64.4 °F 50.0 °F 59% 29.99 in 10.0 mi SW 3.5 mph - N/A   Clear
8:32 PM 60.8 °F 51.8 °F 72% 30.00 in 10.0 mi SSW 3.5 mph - N/A   Clear
8:53 PM 59.0 °F 51.8 °F 77% 30.00 in 10.0 mi SSW 4.6 mph - N/A   Clear
9:13 PM 59.0 °F 50.0 °F 72% 30.00 in 10.0 mi South 4.6 mph - N/A   Clear
9:33 PM 59.0 °F 50.0 °F 72% 30.00 in 10.0 mi South 4.6 mph - N/A   Clear
10:13 PM 57.2 °F 50.0 °F 77% 30.00 in 10.0 mi South 3.5 mph - N/A   Clear
10:33 PM 59.0 °F 50.0 °F 72% 30.00 in 10.0 mi South 5.8 mph - N/A   Clear
10:53 PM 57.2 °F 50.0 °F 77% 30.00 in 10.0 mi South 5.8 mph - N/A   Clear
11:13 PM 57.2 °F 50.0 °F 77% 30.00 in 10.0 mi South 5.8 mph - N/A   Clear
11:34 PM 59.0 °F 50.0 °F 72% 30.00 in 10.0 mi SSW 6.9 mph - N/A   Clear
11:54 PM 59.0 °F 50.0 °F 72% 30.00 in 10.0 mi SW 4.6 mph - N/A   Clear